[[{"header":{"parameterUnit":"m.s-1","parameterCategory":1,"la1":30.2991,"la2":30.254,"lo1":-89.0895,"lo2":-89.0444,"dy":0.0017,"dx":0.0017,"nx":28,"ny":28,"refTime":"2026-01-05T03:00:00:Z","depth":0,"parameterNumber":2,"parameterNumberName":"U-component_of_WINDS"},"data":[0,0,0,0,0,0,0,0,0,0,0,0,0,0,0,0,0,0,0,0,0,0,0,0,0,0,0,0,0,0,0,0,0,0,0,0,0,0,0,0,0,0,0,0,0,0,0,0,0,0,0,0,0,0,0,0,0,0,-1.5942,-1.5943,0,-1.5981,-1.5982,-1.5982,-1.5957,-1.5955,-1.5954,-1.5953,-1.5999,-1.6001,-1.6003,0,0,0,0,0,0,0,0,0,0,0,0,0,-1.5853,-1.5855,-1.5942,-1.5943,-1.5943,-1.5981,-1.5982,-1.5982,-1.5957,-1.5955,-1.5954,-1.5953,-1.5998,-1.6001,-1.6004,0,0,0,0,0,0,0,0,0,0,0,0,0,-1.5892,-1.5856,-1.5942,-1.5935,-1.5935,-1.5981,-1.5982,-1.5982,-1.5957,-1.5955,-1.5954,-1.5952,-1.5997,-1.6,-1.6004,-1.6061,0,0,-1.6015,-1.6016,0,0,0,0,0,0,0,0,-1.589,-1.5896,-1.5936,-1.5936,-1.5935,-1.5962,-1.5967,-1.6009,-1.5958,-1.5949,-1.5953,-1.5951,-1.5988,-1.5992,-1.6004,-1.6063,-1.6065,-1.6015,-1.6017,-1.6018,-1.6019,0,0,0,0,0,0,0,-1.5887,-1.5894,-1.5958,-1.5936,-1.5936,-1.5932,-1.5936,-1.5975,-1.5978,-1.5949,-1.5948,-1.5952,-1.5988,-1.6001,-1.6005,-1.6066,-1.6015,-1.6018,-1.602,-1.6021,-1.6178,-1.618,0,0,0,0,0,0,-1.5884,-1.5892,-1.5957,-1.5959,-1.5908,-1.5935,-1.5939,-1.5955,-1.5978,-1.5979,-1.5954,-1.5951,-1.5995,-1.6001,-1.6006,-1.6076,-1.6018,-1.6022,-1.6024,-1.6176,-1.6178,-1.618,0,0,0,0,0,0,-1.5883,-1.589,-1.5955,-1.5925,-1.5933,-1.5939,-1.5957,-1.5957,-1.5969,-1.5981,-1.5982,-1.5965,-1.5994,-1.6001,-1.6048,-1.6077,-1.6023,-1.6026,-1.6173,-1.6176,-1.6179,-1.6216,0,0,0,0,0,0,-1.588,-1.589,-1.591,-1.5925,-1.5934,-1.5994,-1.5959,-1.5959,-1.5975,-1.5972,-1.5992,-1.5994,-1.5993,-1.6043,-1.6051,-1.6081,-1.6029,-1.6171,-1.6175,-1.6178,-1.6212,-1.6219,-1.6226,0,0,0,0,0,-1.5877,-1.5919,-1.5911,-1.5919,-1.5959,-1.5995,-1.6001,-1.5997,-1.5977,-1.5999,-1.6007,-1.5993,-1.6073,-1.6048,-1.6057,-1.6089,-1.6169,-1.6174,-1.6178,-1.6209,-1.6218,-1.6226,0,0,0,0,0,0,-1.5908,-1.5921,-1.5912,-1.596,-1.5976,-1.5991,-1.6017,-1.6007,-1.6032,-1.6028,-1.6025,-1.603,-1.6079,-1.6089,-1.606,-1.6147,-1.6118,-1.6125,-1.6138,-1.6147,-1.6154,-1.6151,-1.6032,0,0,0,0,0,-1.592,-1.5946,-1.5957,-1.5999,-1.6007,-1.6011,-1.6027,-1.6023,-1.6041,-1.6049,-1.606,-1.608,-1.611,-1.6129,-1.6157,-1.6214,-1.6219,-1.624,-1.6247,-1.6253,-1.6259,-1.6292,-1.6302,-1.6196,-1.6196,-1.6196,0,0,-1.5946,-1.5956,-1.5973,-1.6005,-1.6017,-1.6047,-1.6017,-1.6049,-1.6072,-1.6054,-1.6098,-1.6108,-1.613,-1.6183,-1.6206,-1.6192,-1.629,-1.6259,-1.6264,-1.6266,-1.6298,-1.6308,-1.6317,-1.6199,-1.6198,-1.6198,0,0,-1.6008,-1.6017,-1.6053,-1.6067,-1.6086,-1.6089,-1.6098,-1.6114,-1.6119,-1.6164,-1.6151,-1.618,-1.6231,-1.6248,-1.6263,-1.6335,-1.6324,-1.6344,-1.6382,-1.6414,-1.6422,-1.643,-1.6457,-1.6466,-1.635,-1.635,-1.635,0,-1.6038,-1.6079,-1.6074,-1.6107,-1.6123,-1.6107,-1.6146,-1.616,-1.6188,-1.62,-1.6184,-1.6249,-1.6262,-1.632,-1.6337,-1.635,-1.6362,-1.6341,-1.6421,-1.6429,-1.6436,-1.6461,-1.6471,-1.6353,-1.6352,-1.6352,-1.6352,0,-1.6116,-1.6146,-1.6173,-1.6199,-1.6218,-1.6254,-1.6257,-1.6277,-1.6273,-1.6278,-1.6326,-1.6342,-1.6374,-1.6388,-1.6384,-1.6445,-1.6436,-1.6421,-1.6392,-1.6448,-1.6472,-1.6482,-1.6356,-1.6355,-1.6354,-1.6354,0,0,-1.6196,-1.622,-1.623,-1.6243,-1.6264,-1.6288,-1.6325,-1.6355,-1.6373,-1.6395,-1.6427,-1.6471,-1.6458,-1.6475,-1.6474,-1.6503,-1.6561,-1.6484,-1.6485,-1.6498,-1.6632,-1.6643,-1.6654,-1.6554,-1.6556,-1.6558,-1.663,0,-1.626,-1.632,-1.6318,-1.6377,-1.6406,-1.6393,-1.6425,-1.6444,-1.6451,-1.6479,-1.6487,-1.6519,-1.6498,-1.6509,-1.6537,-1.6548,-1.6588,-1.6543,-1.6587,-1.6588,-1.6581,-1.6667,-1.6678,-1.6746,-1.664,-1.6641,-1.6642,0,-1.6341,-1.6363,-1.6424,-1.6443,-1.6455,-1.6484,-1.6512,-1.6538,-1.656,-1.6564,-1.6585,-1.658,-1.662,-1.6591,-1.6649,-1.6618,-1.6637,-1.6645,-1.6648,-1.6652,-1.6618,-1.6674,-1.6767,-1.6777,-1.6657,-1.6656,-1.6655,0,-1.6394,-1.644,-1.6483,-1.6494,-1.6517,-1.6538,-1.6549,-1.6569,-1.6588,-1.6614,-1.6627,-1.6658,-1.6675,-1.6701,-1.6706,-1.6684,-1.6765,-1.6735,-1.6771,-1.6771,-1.6788,-1.6786,-1.6886,-1.68,-1.6799,-1.6799,-1.6799,0,-1.6465,-1.6503,-1.6507,-1.6533,-1.6577,-1.6576,-1.662,-1.6629,-1.6648,-1.6678,-1.667,-1.6699,-1.6704,-1.6735,-1.674,-1.6788,-1.6796,-1.6802,-1.6802,-1.6802,-1.6802,-1.6814,-1.681,-1.6802,-1.6801,-1.6801,-1.68,0,-1.6531,-1.6535,-1.6581,-1.6599,-1.6605,-1.6637,-1.6654,-1.6681,-1.6688,-1.6726,-1.6736,-1.6747,-1.6784,-1.6792,-1.6836,-1.6839,-1.6897,-1.6893,-1.6888,-1.6888,-1.6923,-1.692,-1.7034,-1.705,-1.6953,-1.6954,-1.6955,0,-1.6575,-1.6604,-1.6626,-1.6645,-1.6657,-1.6687,-1.6706,-1.6708,-1.6729,-1.6758,-1.6782,-1.6817,-1.6845,-1.6905,-1.692,-1.6954,-1.6952,-1.6989,-1.6957,-1.6956,-1.6953,-1.6951,-1.6955,-1.6995,-1.6996,-1.6997,-1.6998,0,-1.6655,-1.6656,-1.6682,-1.6711,-1.6734,-1.6757,-1.6779,-1.6795,-1.6801,-1.6825,-1.6861,-1.6884,-1.6929,-1.6965,-1.7,-1.7015,-1.7008,-1.7008,-1.7018,-1.7018,-1.7015,-1.7018,-1.6906,-1.7005,-1.7005,-1.7004,-1.7004,-1.7003,-1.6712,-1.6738,-1.6757,-1.6788,-1.6805,-1.6826,-1.6853,-1.6863,-1.6893,-1.6928,-1.6928,-1.6969,-1.6994,-1.704,-1.7057,-1.7091,-1.708,-1.7094,-1.7098,-1.7101,-1.7105,-1.701,-1.7098,-1.7097,-1.7097,-1.7097,-1.7097,0,-1.6792,-1.6804,-1.6832,-1.6863,-1.6888,-1.6879,-1.6903,-1.6926,-1.6961,-1.6983,-1.7012,-1.7056,-1.7092,-1.711,-1.7146,-1.717,-1.7168,-1.718,-1.7178,-1.7182,-1.7113,-1.71,-1.7181,-1.7181,-1.7181,-1.718,-1.718,-1.718,-1.6836,-1.6879,-1.6883,-1.6937,-1.695,-1.6987,-1.7003,-1.7024,-1.7042,-1.709,-1.7119,-1.713,-1.7153,-1.7191,-1.7225,-1.723,-1.7244,-1.7257,-1.726,-1.7195,-1.7187,-1.7178,-1.7167,-1.726,-1.726,-1.7327,-1.7328,-1.7328]},{"header":{"parameterUnit":"m.s-1","parameterCategory":1,"la1":30.2991,"la2":30.254,"lo1":-89.0895,"lo2":-89.0444,"dy":0.0017,"dx":0.0017,"nx":28,"ny":28,"refTime":"2026-01-05T03:00:00:Z","depth":0,"parameterNumber":3,"parameterNumberName":"V-component_of_WINDS"},"data":[0,0,0,0,0,0,0,0,0,0,0,0,0,0,0,0,0,0,0,0,0,0,0,0,0,0,0,0,0,0,0,0,0,0,0,0,0,0,0,0,0,0,0,0,0,0,0,0,0,0,0,0,0,0,0,0,0,0,1.3966,1.3967,0,1.4021,1.4022,1.4022,1.4064,1.4064,1.4065,1.4065,1.4119,1.412,1.4121,0,0,0,0,0,0,0,0,0,0,0,0,0,1.3896,1.3897,1.3966,1.3967,1.3968,1.4021,1.4022,1.4022,1.4064,1.4064,1.4065,1.4065,1.4118,1.412,1.4121,0,0,0,0,0,0,0,0,0,0,0,0,0,1.3936,1.3898,1.3966,1.3995,1.3998,1.4021,1.4022,1.4023,1.4064,1.4064,1.4065,1.4066,1.4118,1.412,1.4121,1.4119,0,0,1.4126,1.4127,0,0,0,0,0,0,0,0,1.3934,1.3939,1.399,1.3993,1.3996,1.4036,1.4017,1.4055,1.4064,1.4039,1.4065,1.4066,1.4091,1.4095,1.4103,1.4121,1.4124,1.4126,1.4127,1.4128,1.4128,0,0,0,0,0,0,0,1.3931,1.3937,1.3988,1.3991,1.3995,1.4005,1.4011,1.4024,1.4061,1.4041,1.4044,1.405,1.4093,1.4102,1.4105,1.4125,1.4126,1.4127,1.4128,1.4129,1.4145,1.4144,0,0,0,0,0,0,1.3924,1.3934,1.3986,1.3989,1.3966,1.4005,1.4012,1.4023,1.4061,1.4067,1.405,1.4052,1.4099,1.4103,1.4107,1.4108,1.4128,1.4129,1.413,1.4145,1.4144,1.4144,0,0,0,0,0,0,1.3923,1.3928,1.3984,1.3963,1.3971,1.4006,1.4017,1.4024,1.4033,1.4067,1.4074,1.4052,1.4099,1.4105,1.4116,1.411,1.413,1.4131,1.4146,1.4145,1.4144,1.4109,0,0,0,0,0,0,1.392,1.3928,1.3928,1.3962,1.3972,1.3992,1.4017,1.4024,1.4036,1.4039,1.4072,1.4077,1.41,1.4114,1.4118,1.4113,1.4133,1.4146,1.4145,1.4144,1.4111,1.4107,1.4104,0,0,0,0,0,1.3918,1.3915,1.3927,1.3933,1.3972,1.3992,1.3997,1.4024,1.4035,1.4035,1.4057,1.4076,1.411,1.4114,1.4119,1.4115,1.4147,1.4146,1.4144,1.4112,1.4108,1.4104,0,0,0,0,0,0,1.3877,1.392,1.3934,1.3942,1.3963,1.3999,1.4,1.4018,1.4036,1.4038,1.4071,1.4077,1.4085,1.4101,1.4105,1.4115,1.4131,1.4131,1.4105,1.4101,1.4097,1.4093,1.4134,0,0,0,0,0,1.3869,1.3882,1.3919,1.3922,1.3932,1.3964,1.3974,1.3993,1.4016,1.4024,1.4047,1.4068,1.4084,1.4093,1.4109,1.4113,1.4121,1.4112,1.4109,1.4106,1.4105,1.411,1.4106,1.414,1.414,1.414,0,0,1.3853,1.3878,1.3884,1.3915,1.3933,1.3946,1.3971,1.3983,1.3993,1.4026,1.4039,1.4056,1.4081,1.4089,1.4094,1.4103,1.4098,1.4104,1.4102,1.4103,1.4108,1.4105,1.4102,1.4139,1.4139,1.4139,0,0,1.383,1.385,1.3856,1.3874,1.3902,1.3923,1.3925,1.3958,1.3971,1.3984,1.401,1.4021,1.4047,1.4064,1.4076,1.406,1.4078,1.4064,1.4046,1.405,1.4047,1.4045,1.404,1.4038,1.4064,1.4063,1.4063,0,1.3806,1.3826,1.3856,1.3867,1.388,1.3911,1.3918,1.3934,1.3965,1.3973,1.3982,1.4016,1.4035,1.4048,1.4044,1.4053,1.4055,1.4061,1.4045,1.4043,1.4042,1.4037,1.4035,1.4062,1.4062,1.4062,1.4062,0,1.3796,1.381,1.3811,1.3842,1.3855,1.3863,1.3894,1.3903,1.3921,1.3941,1.3954,1.3979,1.4001,1.4005,1.4022,1.402,1.4025,1.4039,1.4056,1.4036,1.4033,1.4031,1.4059,1.406,1.406,1.4061,0,0,1.3749,1.3796,1.3796,1.3811,1.3845,1.3856,1.3865,1.3888,1.3895,1.3916,1.3925,1.3946,1.396,1.3974,1.3993,1.3996,1.3983,1.4011,1.4012,1.4005,1.3983,1.3973,1.397,1.3995,1.3995,1.3995,1.3981,0,1.3731,1.3752,1.3779,1.379,1.3803,1.3833,1.3842,1.3863,1.3882,1.3896,1.3917,1.3932,1.3949,1.3957,1.3962,1.3984,1.3979,1.3985,1.4004,1.4004,1.3997,1.3968,1.3957,1.3943,1.398,1.398,1.398,0,1.3714,1.3734,1.3746,1.378,1.3786,1.3794,1.3817,1.3829,1.3854,1.3868,1.3883,1.3905,1.3916,1.3931,1.3947,1.3951,1.396,1.3972,1.3972,1.3975,1.3991,1.3971,1.3939,1.3937,1.3978,1.3978,1.3978,0,1.3679,1.3709,1.3721,1.3732,1.3771,1.3776,1.3792,1.3817,1.3829,1.3849,1.3857,1.3877,1.3888,1.3904,1.393,1.3938,1.3944,1.396,1.3955,1.3955,1.3956,1.3955,1.3925,1.396,1.396,1.396,1.396,0,1.3658,1.3664,1.3706,1.3713,1.3722,1.3752,1.376,1.3778,1.3801,1.3812,1.3839,1.3849,1.3882,1.3896,1.3916,1.3927,1.3932,1.3943,1.3949,1.3941,1.394,1.3948,1.395,1.396,1.396,1.396,1.396,0,1.362,1.3649,1.3664,1.3699,1.3708,1.3713,1.3743,1.3751,1.3772,1.3786,1.3791,1.3823,1.3841,1.3869,1.3894,1.3908,1.3915,1.3924,1.3907,1.3911,1.3904,1.3905,1.3879,1.3877,1.3913,1.3912,1.3912,0,1.3605,1.3611,1.3648,1.3658,1.3673,1.3688,1.3701,1.3731,1.3743,1.3772,1.3777,1.3796,1.3814,1.384,1.3866,1.3886,1.3895,1.3885,1.3898,1.3891,1.3896,1.3896,1.3897,1.3882,1.3881,1.3881,1.3881,0,1.3575,1.3589,1.3606,1.3629,1.3643,1.3662,1.3682,1.3689,1.3723,1.3735,1.3754,1.3768,1.3794,1.3814,1.3837,1.3853,1.3873,1.3876,1.3876,1.3869,1.3859,1.3865,1.3899,1.3877,1.3877,1.3877,1.3878,1.3878,1.3549,1.3556,1.3583,1.3602,1.362,1.3639,1.3648,1.3671,1.3687,1.3712,1.3728,1.3746,1.3771,1.3804,1.382,1.3834,1.3842,1.3842,1.3842,1.3842,1.3839,1.3857,1.3838,1.3838,1.3838,1.3838,1.3838,0,1.3521,1.354,1.3557,1.3585,1.3599,1.3617,1.364,1.3651,1.3667,1.3689,1.3706,1.3728,1.3747,1.3774,1.3795,1.3801,1.381,1.3805,1.3806,1.3809,1.383,1.3828,1.3797,1.3797,1.3797,1.3797,1.3797,1.3797,1.3508,1.3521,1.3538,1.3561,1.358,1.3598,1.361,1.3627,1.3645,1.3668,1.3684,1.3702,1.3726,1.3749,1.3768,1.3775,1.3782,1.3774,1.3784,1.3804,1.3807,1.3811,1.381,1.3775,1.3775,1.3762,1.3762,1.3762]}]]